Year,Month,Day,Hour,Minute,Value (Times are PST for temperature in C)
2017,08,04,00,00,21.40
2017,08,04,00,01,21.40
2017,08,04,00,02,21.40
2017,08,04,00,03,21.40
2017,08,04,00,04,21.40
2017,08,04,00,05,21.40
2017,08,04,00,06,21.30
2017,08,04,00,07,21.30
2017,08,04,00,08,21.30
2017,08,04,00,09,21.30
2017,08,04,00,10,21.30
2017,08,04,00,11,21.20
2017,08,04,00,12,21.20
2017,08,04,00,13,21.20
2017,08,04,00,14,21.20
2017,08,04,00,15,21.10
2017,08,04,00,16,21.10
2017,08,04,00,17,21.00
2017,08,04,00,18,20.90
2017,08,04,00,19,20.90
2017,08,04,00,20,20.80
2017,08,04,00,21,20.80
2017,08,04,00,22,20.70
2017,08,04,00,23,20.70
2017,08,04,00,24,20.60
2017,08,04,00,25,20.60
2017,08,04,00,26,20.60
2017,08,04,00,27,20.50
2017,08,04,00,28,20.50
2017,08,04,00,29,20.40
2017,08,04,00,30,20.40
2017,08,04,00,31,20.40
2017,08,04,00,32,20.40
2017,08,04,00,33,20.40
2017,08,04,00,34,20.40
2017,08,04,00,35,20.30
2017,08,04,00,36,20.30
2017,08,04,00,37,20.30
2017,08,04,00,38,20.30
2017,08,04,00,39,20.30
2017,08,04,00,40,20.30
2017,08,04,00,41,20.20
2017,08,04,00,42,20.20
2017,08,04,00,43,20.20
2017,08,04,00,44,20.20
2017,08,04,00,45,20.20
2017,08,04,00,46,20.10
2017,08,04,00,47,20.10
2017,08,04,00,48,20.10
2017,08,04,00,49,20.10
2017,08,04,00,50,20.00
2017,08,04,00,51,20.00
2017,08,04,00,52,20.00
2017,08,04,00,53,20.00
2017,08,04,00,54,19.90
2017,08,04,00,55,19.90
2017,08,04,00,56,19.90
2017,08,04,00,57,19.90
2017,08,04,00,58,19.80
2017,08,04,00,59,19.80
2017,08,04,01,00,19.80
2017,08,04,01,01,19.80
2017,08,04,01,02,19.80
2017,08,04,01,03,19.70
2017,08,04,01,04,19.70
2017,08,04,01,05,19.70
2017,08,04,01,06,19.70
2017,08,04,01,07,19.70
2017,08,04,01,08,19.70
2017,08,04,01,09,19.70
2017,08,04,01,10,19.70
2017,08,04,01,11,19.70
2017,08,04,01,12,19.60
2017,08,04,01,13,19.60
2017,08,04,01,14,19.60
2017,08,04,01,15,19.60
2017,08,04,01,16,19.60
2017,08,04,01,17,19.60
2017,08,04,01,18,19.60
2017,08,04,01,19,19.60
2017,08,04,01,20,19.60
2017,08,04,01,21,19.60
2017,08,04,01,22,19.60
2017,08,04,01,23,19.60
2017,08,04,01,24,19.50
2017,08,04,01,25,19.50
2017,08,04,01,26,19.40
2017,08,04,01,27,19.40
2017,08,04,01,28,19.40
2017,08,04,01,29,19.40
2017,08,04,01,30,19.40
2017,08,04,01,31,19.40
2017,08,04,01,32,19.30
2017,08,04,01,33,19.30
2017,08,04,01,34,19.30
2017,08,04,01,35,19.30
2017,08,04,01,36,19.30
2017,08,04,01,37,19.30
2017,08,04,01,38,19.30
2017,08,04,01,39,19.20
2017,08,04,01,40,19.20
2017,08,04,01,41,19.20
2017,08,04,01,42,19.20
2017,08,04,01,43,19.20
2017,08,04,01,44,19.20
2017,08,04,01,45,19.20
2017,08,04,01,46,19.20
2017,08,04,01,47,19.20
2017,08,04,01,48,19.20
2017,08,04,01,49,19.20
2017,08,04,01,50,19.20
2017,08,04,01,51,19.20
2017,08,04,01,52,19.20
2017,08,04,01,53,19.10
2017,08,04,01,54,19.10
2017,08,04,01,55,19.10
2017,08,04,01,56,19.10
2017,08,04,01,57,19.10
2017,08,04,01,58,19.00
2017,08,04,01,59,19.00
2017,08,04,02,00,19.00
2017,08,04,02,01,19.00
2017,08,04,02,02,18.90
2017,08,04,02,03,18.90
2017,08,04,02,04,18.90
2017,08,04,02,05,18.90
2017,08,04,02,06,18.90
2017,08,04,02,07,18.80
2017,08,04,02,08,18.80
2017,08,04,02,09,18.80
2017,08,04,02,10,18.80
2017,08,04,02,11,18.80
2017,08,04,02,12,18.80
2017,08,04,02,13,18.70
2017,08,04,02,14,18.70
2017,08,04,02,15,18.70
2017,08,04,02,16,18.70
2017,08,04,02,17,18.70
2017,08,04,02,18,18.70
2017,08,04,02,19,18.60
2017,08,04,02,20,18.60
2017,08,04,02,21,18.60
2017,08,04,02,22,18.60
2017,08,04,02,23,18.60
2017,08,04,02,24,18.60
2017,08,04,02,25,18.50
2017,08,04,02,26,18.50
2017,08,04,02,27,18.50
2017,08,04,02,28,18.50
2017,08,04,02,29,18.40
2017,08,04,02,30,18.40
2017,08,04,02,31,18.40
2017,08,04,02,32,18.40
2017,08,04,02,33,18.40
2017,08,04,02,34,18.40
2017,08,04,02,35,18.30
2017,08,04,02,36,18.30
2017,08,04,02,37,18.30
2017,08,04,02,38,18.30
2017,08,04,02,39,18.30
2017,08,04,02,40,18.30
2017,08,04,02,41,18.30
2017,08,04,02,42,18.30
2017,08,04,02,43,18.30
2017,08,04,02,44,18.30
2017,08,04,02,45,18.30
2017,08,04,02,46,18.20
2017,08,04,02,47,18.20
2017,08,04,02,48,18.20
2017,08,04,02,49,18.20
2017,08,04,02,50,18.20
2017,08,04,02,51,18.20
2017,08,04,02,52,18.10
2017,08,04,02,53,18.10
2017,08,04,02,54,18.10
2017,08,04,02,55,18.10
2017,08,04,02,56,18.10
2017,08,04,02,57,18.10
2017,08,04,02,58,18.10
2017,08,04,02,59,18.10
2017,08,04,03,00,18.00
2017,08,04,03,01,18.00
2017,08,04,03,02,18.00
2017,08,04,03,03,17.90
2017,08,04,03,04,17.90
2017,08,04,03,05,17.90
2017,08,04,03,06,17.90
2017,08,04,03,07,17.90
2017,08,04,03,08,17.90
2017,08,04,03,09,17.90
2017,08,04,03,10,17.90
2017,08,04,03,11,17.90
2017,08,04,03,12,17.80
2017,08,04,03,13,17.80
2017,08,04,03,14,17.80
2017,08,04,03,15,17.80
2017,08,04,03,16,17.80
2017,08,04,03,17,17.80
2017,08,04,03,18,17.80
2017,08,04,03,19,17.80
2017,08,04,03,20,17.80
2017,08,04,03,21,17.70
2017,08,04,03,22,17.70
2017,08,04,03,23,17.70
2017,08,04,03,24,17.70
2017,08,04,03,25,17.70
2017,08,04,03,26,17.70
2017,08,04,03,27,17.70
2017,08,04,03,28,17.70
2017,08,04,03,29,17.70
2017,08,04,03,30,17.70
2017,08,04,03,31,17.60
2017,08,04,03,32,17.60
2017,08,04,03,33,17.60
2017,08,04,03,34,17.60
2017,08,04,03,35,17.60
2017,08,04,03,36,17.60
2017,08,04,03,37,17.60
2017,08,04,03,38,17.60
2017,08,04,03,39,17.60
2017,08,04,03,40,17.60
2017,08,04,03,41,17.60
2017,08,04,03,42,17.60
2017,08,04,03,43,17.50
2017,08,04,03,44,17.50
2017,08,04,03,45,17.50
2017,08,04,03,46,17.50
2017,08,04,03,47,17.40
2017,08,04,03,48,17.40
2017,08,04,03,49,17.40
2017,08,04,03,50,17.40
2017,08,04,03,51,17.40
2017,08,04,03,52,17.40
2017,08,04,03,53,17.40
2017,08,04,03,54,17.40
2017,08,04,03,55,17.40
2017,08,04,03,56,17.40
2017,08,04,03,57,17.40
2017,08,04,03,58,17.40
2017,08,04,03,59,17.40
2017,08,04,04,00,17.40
2017,08,04,04,01,17.40
2017,08,04,04,02,17.40
2017,08,04,04,03,17.30
2017,08,04,04,04,17.30
2017,08,04,04,05,17.30
2017,08,04,04,06,17.30
2017,08,04,04,07,17.30
2017,08,04,04,08,17.30
2017,08,04,04,09,17.30
2017,08,04,04,10,17.20
2017,08,04,04,11,17.20
2017,08,04,04,12,17.20
2017,08,04,04,13,17.20
2017,08,04,04,14,17.20
2017,08,04,04,15,17.20
2017,08,04,04,16,17.10
2017,08,04,04,17,17.10
2017,08,04,04,18,17.10
2017,08,04,04,19,17.10
2017,08,04,04,20,17.10
2017,08,04,04,21,17.10
2017,08,04,04,22,17.10
2017,08,04,04,23,17.10
2017,08,04,04,24,17.10
2017,08,04,04,25,17.10
2017,08,04,04,26,17.00
2017,08,04,04,27,17.00
2017,08,04,04,28,17.00
2017,08,04,04,29,16.90
2017,08,04,04,30,16.90
2017,08,04,04,31,16.90
2017,08,04,04,32,16.90
2017,08,04,04,33,16.90
2017,08,04,04,34,16.90
2017,08,04,04,35,16.90
2017,08,04,04,36,16.90
2017,08,04,04,37,16.90
2017,08,04,04,38,16.90
2017,08,04,04,39,16.90
2017,08,04,04,40,16.80
2017,08,04,04,41,16.80
2017,08,04,04,42,16.80
2017,08,04,04,43,16.80
2017,08,04,04,44,16.80
2017,08,04,04,45,16.80
2017,08,04,04,46,16.80
2017,08,04,04,47,16.80
2017,08,04,04,48,16.80
2017,08,04,04,49,16.80
2017,08,04,04,50,16.80
2017,08,04,04,51,16.80
2017,08,04,04,52,16.70
2017,08,04,04,53,16.70
2017,08,04,04,54,16.70
2017,08,04,04,55,16.70
2017,08,04,04,56,16.70
2017,08,04,04,57,16.60
2017,08,04,04,58,16.60
2017,08,04,04,59,16.60
2017,08,04,05,00,16.60
2017,08,04,05,01,16.60
2017,08,04,05,02,16.70
2017,08,04,05,03,16.70
2017,08,04,05,04,16.70
2017,08,04,05,05,16.70
2017,08,04,05,06,16.70
2017,08,04,05,07,16.70
2017,08,04,05,08,16.70
2017,08,04,05,09,16.70
2017,08,04,05,10,16.70
2017,08,04,05,11,16.70
2017,08,04,05,12,16.70
2017,08,04,05,13,16.70
2017,08,04,05,14,16.70
2017,08,04,05,15,16.70
2017,08,04,05,16,16.70
2017,08,04,05,17,16.70
2017,08,04,05,18,16.70
2017,08,04,05,19,16.60
2017,08,04,05,20,16.60
2017,08,04,05,21,16.60
2017,08,04,05,22,16.60
2017,08,04,05,23,16.60
2017,08,04,05,24,16.60
2017,08,04,05,25,16.60
2017,08,04,05,26,16.50
2017,08,04,05,27,16.50
2017,08,04,05,28,16.50
2017,08,04,05,29,16.50
2017,08,04,05,30,16.50
2017,08,04,05,31,16.50
2017,08,04,05,32,16.50
2017,08,04,05,33,16.50
2017,08,04,05,34,16.50
2017,08,04,05,35,16.40
2017,08,04,05,36,16.40
2017,08,04,05,37,16.40
2017,08,04,05,38,16.40
2017,08,04,05,39,16.40
2017,08,04,05,40,16.40
2017,08,04,05,41,16.40
2017,08,04,05,42,16.40
2017,08,04,05,43,16.40
2017,08,04,05,44,16.40
2017,08,04,05,45,16.40
2017,08,04,05,46,16.30
2017,08,04,05,47,16.30
2017,08,04,05,48,16.30
2017,08,04,05,49,16.30
2017,08,04,05,50,16.30
2017,08,04,05,51,16.30
2017,08,04,05,52,16.30
2017,08,04,05,53,16.30
2017,08,04,05,54,16.30
2017,08,04,05,55,16.30
2017,08,04,05,56,16.30
2017,08,04,05,57,16.30
2017,08,04,05,58,16.30
2017,08,04,05,59,16.30
2017,08,04,06,00,16.30
2017,08,04,06,01,16.30
2017,08,04,06,02,16.30
2017,08,04,06,03,16.20
2017,08,04,06,04,16.20
2017,08,04,06,05,16.20
2017,08,04,06,06,16.20
2017,08,04,06,07,16.30
2017,08,04,06,08,16.30
2017,08,04,06,09,16.30
2017,08,04,06,10,16.30
2017,08,04,06,11,16.30
2017,08,04,06,12,16.30
2017,08,04,06,13,16.30
2017,08,04,06,14,16.30
2017,08,04,06,15,16.30
2017,08,04,06,16,16.30
2017,08,04,06,17,16.30
2017,08,04,06,18,16.30
2017,08,04,06,19,16.30
2017,08,04,06,20,16.30
2017,08,04,06,21,16.30
2017,08,04,06,22,16.20
2017,08,04,06,23,16.20
2017,08,04,06,24,16.20
2017,08,04,06,25,16.20
2017,08,04,06,26,16.20
2017,08,04,06,27,16.20
2017,08,04,06,28,16.20
2017,08,04,06,29,16.20
2017,08,04,06,30,16.20
2017,08,04,06,31,16.20
2017,08,04,06,32,16.20
2017,08,04,06,33,16.20
2017,08,04,06,34,16.20
2017,08,04,06,35,16.20
2017,08,04,06,36,16.20
2017,08,04,06,37,16.20
2017,08,04,06,38,16.20
2017,08,04,06,39,16.20
2017,08,04,06,40,16.20
2017,08,04,06,41,16.20
2017,08,04,06,42,16.20
2017,08,04,06,43,16.20
2017,08,04,06,44,16.20
2017,08,04,06,45,16.20
2017,08,04,06,46,16.20
2017,08,04,06,47,16.20
2017,08,04,06,48,16.20
2017,08,04,06,49,16.20
2017,08,04,06,50,16.20
2017,08,04,06,51,16.20
2017,08,04,06,52,16.20
2017,08,04,06,53,16.20
2017,08,04,06,54,16.20
2017,08,04,06,55,16.20
2017,08,04,06,56,16.20
2017,08,04,06,57,16.20
2017,08,04,06,58,16.20
2017,08,04,06,59,16.20
2017,08,04,07,00,16.20
2017,08,04,07,01,16.10
2017,08,04,07,02,16.10
2017,08,04,07,03,16.10
2017,08,04,07,04,16.20
2017,08,04,07,05,16.20
2017,08,04,07,06,16.20
2017,08,04,07,07,16.20
2017,08,04,07,08,16.20
2017,08,04,07,09,16.20
2017,08,04,07,10,16.30
2017,08,04,07,11,16.30
2017,08,04,07,12,16.30
2017,08,04,07,13,16.30
2017,08,04,07,14,16.30
2017,08,04,07,15,16.40
2017,08,04,07,16,16.40
2017,08,04,07,17,16.40
2017,08,04,07,18,16.40
2017,08,04,07,19,16.50
2017,08,04,07,20,16.50
2017,08,04,07,21,16.50
2017,08,04,07,22,16.60
2017,08,04,07,23,16.60
2017,08,04,07,24,16.60
2017,08,04,07,25,16.70
2017,08,04,07,26,16.70
2017,08,04,07,27,16.70
2017,08,04,07,28,16.80
2017,08,04,07,29,16.80
2017,08,04,07,30,16.80
2017,08,04,07,31,16.90
2017,08,04,07,32,16.90
2017,08,04,07,33,16.90
2017,08,04,07,34,17.00
2017,08,04,07,35,17.00
2017,08,04,07,36,17.10
2017,08,04,07,37,17.10
2017,08,04,07,38,17.10
2017,08,04,07,39,17.10
2017,08,04,07,40,17.10
2017,08,04,07,41,17.20
2017,08,04,07,42,17.20
2017,08,04,07,43,17.20
2017,08,04,07,44,17.20
2017,08,04,07,45,17.30
2017,08,04,07,46,17.30
2017,08,04,07,47,17.30
2017,08,04,07,48,17.30
2017,08,04,07,49,17.40
2017,08,04,07,50,17.40
2017,08,04,07,51,17.40
2017,08,04,07,52,17.40
2017,08,04,07,53,17.40
2017,08,04,07,54,17.40
2017,08,04,07,55,17.40
2017,08,04,07,56,17.40
2017,08,04,07,57,17.50
2017,08,04,07,58,17.50
2017,08,04,07,59,17.50
2017,08,04,08,00,17.60
2017,08,04,08,01,17.60
2017,08,04,08,02,17.60
2017,08,04,08,03,17.60
2017,08,04,08,04,17.60
2017,08,04,08,05,17.70
2017,08,04,08,06,17.70
2017,08,04,08,07,17.70
2017,08,04,08,08,17.70
2017,08,04,08,09,17.70
2017,08,04,08,10,17.80
2017,08,04,08,11,17.80
2017,08,04,08,12,17.80
2017,08,04,08,13,17.80
2017,08,04,08,14,17.90
2017,08,04,08,15,17.90
2017,08,04,08,16,17.90
2017,08,04,08,17,17.90
2017,08,04,08,18,18.00
2017,08,04,08,19,18.00
2017,08,04,08,20,18.10
2017,08,04,08,21,18.10
2017,08,04,08,22,18.10
2017,08,04,08,23,18.20
2017,08,04,08,24,18.20
2017,08,04,08,25,18.20
2017,08,04,08,26,18.20
2017,08,04,08,27,18.30
2017,08,04,08,28,18.30
2017,08,04,08,29,18.30
2017,08,04,08,30,18.40
2017,08,04,08,31,18.40
2017,08,04,08,32,18.50
2017,08,04,08,33,18.50
2017,08,04,08,34,18.60
2017,08,04,08,35,18.60
2017,08,04,08,36,18.60
2017,08,04,08,37,18.70
2017,08,04,08,38,18.70
2017,08,04,08,39,18.80
2017,08,04,08,40,18.80
2017,08,04,08,41,18.90
2017,08,04,08,42,18.90
2017,08,04,08,43,19.00
2017,08,04,08,44,19.10
2017,08,04,08,45,19.10
2017,08,04,08,46,19.20
2017,08,04,08,47,19.20
2017,08,04,08,48,19.30
2017,08,04,08,49,19.30
2017,08,04,08,50,19.40
2017,08,04,08,51,19.50
2017,08,04,08,52,19.60
2017,08,04,08,53,19.60
2017,08,04,08,54,19.70
2017,08,04,08,55,19.80
2017,08,04,08,56,19.90
2017,08,04,08,57,20.00
2017,08,04,08,58,20.10
2017,08,04,08,59,20.20
2017,08,04,09,00,20.30
2017,08,04,09,01,20.40
2017,08,04,09,02,20.50
2017,08,04,09,03,20.50
2017,08,04,09,04,20.60
2017,08,04,09,05,20.70
2017,08,04,09,06,20.80
2017,08,04,09,07,20.90
2017,08,04,09,08,20.90
2017,08,04,09,09,21.00
2017,08,04,09,10,21.10
2017,08,04,09,11,21.20
2017,08,04,09,12,21.20
2017,08,04,09,13,21.30
2017,08,04,09,14,21.30
2017,08,04,09,15,21.40
2017,08,04,09,16,21.40
2017,08,04,09,17,21.40
2017,08,04,09,18,21.40
2017,08,04,09,19,21.40
2017,08,04,09,20,21.40
2017,08,04,09,21,21.40
2017,08,04,09,22,21.40
2017,08,04,09,23,21.40
2017,08,04,09,24,21.40
2017,08,04,09,25,21.40
2017,08,04,09,26,21.40
2017,08,04,09,27,21.40
2017,08,04,09,28,21.50
2017,08,04,09,29,21.50
2017,08,04,09,30,21.60
2017,08,04,09,31,21.60
2017,08,04,09,32,21.60
2017,08,04,09,33,21.70
2017,08,04,09,34,21.70
2017,08,04,09,35,21.80
2017,08,04,09,36,21.80
2017,08,04,09,37,21.80
2017,08,04,09,38,21.90
2017,08,04,09,39,21.90
2017,08,04,09,40,21.90
2017,08,04,09,41,22.00
2017,08,04,09,42,22.00
2017,08,04,09,43,22.10
2017,08,04,09,44,22.10
2017,08,04,09,45,22.10
2017,08,04,09,46,22.10
2017,08,04,09,47,22.20
2017,08,04,09,48,22.20
2017,08,04,09,49,22.20
2017,08,04,09,50,22.30
2017,08,04,09,51,22.30
2017,08,04,09,52,22.40
2017,08,04,09,53,22.40
2017,08,04,09,54,22.50
2017,08,04,09,55,22.50
2017,08,04,09,56,22.60
2017,08,04,09,57,22.60
2017,08,04,09,58,22.70
2017,08,04,09,59,22.70
2017,08,04,10,00,22.80
2017,08,04,10,01,22.80
2017,08,04,10,02,22.90
2017,08,04,10,03,22.90
2017,08,04,10,04,22.90
2017,08,04,10,05,23.00
2017,08,04,10,06,23.00
2017,08,04,10,07,23.10
2017,08,04,10,08,23.10
2017,08,04,10,09,23.20
2017,08,04,10,10,23.20
2017,08,04,10,11,23.30
2017,08,04,10,12,23.30
2017,08,04,10,13,23.40
2017,08,04,10,14,23.40
2017,08,04,10,15,23.50
2017,08,04,10,16,23.60
2017,08,04,10,17,23.60
2017,08,04,10,18,23.70
2017,08,04,10,19,23.80
2017,08,04,10,20,23.80
2017,08,04,10,21,23.90
2017,08,04,10,22,23.90
2017,08,04,10,23,24.00
2017,08,04,10,24,24.00
2017,08,04,10,25,24.10
2017,08,04,10,26,24.10
2017,08,04,10,27,24.10
2017,08,04,10,28,24.10
2017,08,04,10,29,24.20
2017,08,04,10,30,24.20
2017,08,04,10,31,24.20
2017,08,04,10,32,24.20
2017,08,04,10,33,24.20
2017,08,04,10,34,24.20
2017,08,04,10,35,24.30
2017,08,04,10,36,24.30
2017,08,04,10,37,24.30
2017,08,04,10,38,24.40
2017,08,04,10,39,24.40
2017,08,04,10,40,24.50
2017,08,04,10,41,24.60
2017,08,04,10,42,24.60
2017,08,04,10,43,24.70
2017,08,04,10,44,24.70
2017,08,04,10,45,24.70
2017,08,04,10,46,24.70
2017,08,04,10,47,24.70
2017,08,04,10,48,24.70
2017,08,04,10,49,24.70
2017,08,04,10,50,24.80
2017,08,04,10,51,24.80
2017,08,04,10,52,24.90
2017,08,04,10,53,25.00
2017,08,04,10,54,25.10
2017,08,04,10,55,25.30
2017,08,04,10,56,25.40
2017,08,04,10,57,25.60
2017,08,04,10,58,25.70
2017,08,04,10,59,25.90
2017,08,04,11,00,25.90
2017,08,04,11,01,26.10
2017,08,04,11,02,26.20
2017,08,04,11,03,26.30
2017,08,04,11,04,26.40
2017,08,04,11,05,26.50
2017,08,04,11,06,26.60
2017,08,04,11,07,26.70
2017,08,04,11,08,26.70
2017,08,04,11,09,26.80
2017,08,04,11,10,26.90
2017,08,04,11,11,27.00
2017,08,04,11,12,27.10
2017,08,04,11,13,27.10
2017,08,04,11,14,27.10
2017,08,04,11,15,27.10
2017,08,04,11,16,27.20
2017,08,04,11,17,27.20
2017,08,04,11,18,27.30
2017,08,04,11,19,27.30
2017,08,04,11,20,27.30
2017,08,04,11,21,27.30
2017,08,04,11,22,27.30
2017,08,04,11,23,27.40
2017,08,04,11,24,27.40
2017,08,04,11,25,27.50
2017,08,04,11,26,27.50
2017,08,04,11,27,27.60
2017,08,04,11,28,27.60
2017,08,04,11,29,27.70
2017,08,04,11,30,27.70
2017,08,04,11,31,27.80
2017,08,04,11,32,27.80
2017,08,04,11,33,27.80
2017,08,04,11,34,27.80
2017,08,04,11,35,27.80
2017,08,04,11,36,27.90
2017,08,04,11,37,27.90
2017,08,04,11,38,28.00
2017,08,04,11,39,28.10
2017,08,04,11,40,28.10
2017,08,04,11,41,28.20
2017,08,04,11,42,28.20
2017,08,04,11,43,28.20
2017,08,04,11,44,28.30
2017,08,04,11,45,28.30
2017,08,04,11,46,28.30
2017,08,04,11,47,28.30
2017,08,04,11,48,28.40
2017,08,04,11,49,28.40
2017,08,04,11,50,28.40
2017,08,04,11,51,28.40
2017,08,04,11,52,28.40
2017,08,04,11,53,28.50
2017,08,04,11,54,28.50
2017,08,04,11,55,28.50
2017,08,04,11,56,28.50
2017,08,04,11,57,28.50
2017,08,04,11,58,28.40
2017,08,04,11,59,28.30
2017,08,04,12,00,28.20
2017,08,04,12,01,28.20
2017,08,04,12,02,28.20
2017,08,04,12,03,28.20
2017,08,04,12,04,28.20
2017,08,04,12,05,28.10
2017,08,04,12,06,28.10
2017,08,04,12,07,28.00
2017,08,04,12,08,28.00
2017,08,04,12,09,28.00
2017,08,04,12,10,28.00
2017,08,04,12,11,28.10
2017,08,04,12,12,28.10
2017,08,04,12,13,28.10
2017,08,04,12,14,28.10
2017,08,04,12,15,28.10
2017,08,04,12,16,28.10
2017,08,04,12,17,28.10
2017,08,04,12,18,28.10
2017,08,04,12,19,28.10
2017,08,04,12,20,28.20
2017,08,04,12,21,28.20
2017,08,04,12,22,28.30
2017,08,04,12,23,28.30
2017,08,04,12,24,28.30
2017,08,04,12,25,28.30
2017,08,04,12,26,28.30
2017,08,04,12,27,28.30
2017,08,04,12,28,28.30
2017,08,04,12,29,28.30
2017,08,04,12,30,28.30
2017,08,04,12,31,28.30
2017,08,04,12,32,28.40
2017,08,04,12,33,28.40
2017,08,04,12,34,28.50
2017,08,04,12,35,28.50
2017,08,04,12,36,28.60
2017,08,04,12,37,28.60
2017,08,04,12,38,28.60
2017,08,04,12,39,28.60
2017,08,04,12,40,28.60
2017,08,04,12,41,28.60
2017,08,04,12,42,28.70
2017,08,04,12,43,28.70
2017,08,04,12,44,28.70
2017,08,04,12,45,28.80
2017,08,04,12,46,28.80
2017,08,04,12,47,28.80
2017,08,04,12,48,28.90
2017,08,04,12,49,28.90
2017,08,04,12,50,29.00
2017,08,04,12,51,29.00
2017,08,04,12,52,29.10
2017,08,04,12,53,29.10
2017,08,04,12,54,29.10
2017,08,04,12,55,29.10
2017,08,04,12,56,29.10
2017,08,04,12,57,29.20
2017,08,04,12,58,29.20
2017,08,04,12,59,29.20
2017,08,04,13,00,29.20
2017,08,04,13,01,29.20
2017,08,04,13,02,29.20
2017,08,04,13,03,29.20
2017,08,04,13,04,29.20
2017,08,04,13,05,29.30
2017,08,04,13,06,29.30
2017,08,04,13,07,29.30
2017,08,04,13,08,29.30
2017,08,04,13,09,29.30
2017,08,04,13,10,29.40
2017,08,04,13,11,29.30
2017,08,04,13,12,29.30
2017,08,04,13,13,29.30
2017,08,04,13,14,29.30
2017,08,04,13,15,29.30
2017,08,04,13,16,29.30
2017,08,04,13,17,29.30
2017,08,04,13,18,29.30
2017,08,04,13,19,29.30
2017,08,04,13,20,29.30
2017,08,04,13,21,29.30
2017,08,04,13,22,29.30
2017,08,04,13,23,29.40
2017,08,04,13,24,29.40
2017,08,04,13,25,29.40
2017,08,04,13,26,29.40
2017,08,04,13,27,29.40
2017,08,04,13,28,29.40
2017,08,04,13,29,29.40
2017,08,04,13,30,29.40
2017,08,04,13,31,29.40
2017,08,04,13,32,29.40
2017,08,04,13,33,29.50
2017,08,04,13,34,29.50
2017,08,04,13,35,29.60
2017,08,04,13,36,29.60
2017,08,04,13,37,29.70
2017,08,04,13,38,29.70
2017,08,04,13,39,29.70
2017,08,04,13,40,29.80
2017,08,04,13,41,29.80
2017,08,04,13,42,29.90
2017,08,04,13,43,29.90
2017,08,04,13,44,29.90
2017,08,04,13,45,29.90
2017,08,04,13,46,29.90
2017,08,04,13,47,29.90
2017,08,04,13,48,29.80
2017,08,04,13,49,29.90
2017,08,04,13,50,29.90
2017,08,04,13,51,29.90
2017,08,04,13,52,29.90
2017,08,04,13,53,29.90
2017,08,04,13,54,29.90
2017,08,04,13,55,30.00
2017,08,04,13,56,30.00
2017,08,04,13,57,30.00
2017,08,04,13,58,30.00
2017,08,04,13,59,30.00
2017,08,04,14,00,30.10
2017,08,04,14,01,30.10
2017,08,04,14,02,30.10
2017,08,04,14,03,30.10
2017,08,04,14,04,30.10
2017,08,04,14,05,30.10
2017,08,04,14,06,30.20
2017,08,04,14,07,30.20
2017,08,04,14,08,30.20
2017,08,04,14,09,30.30
2017,08,04,14,10,30.30
2017,08,04,14,11,30.30
2017,08,04,14,12,30.40
2017,08,04,14,13,30.40
2017,08,04,14,14,30.50
2017,08,04,14,15,30.40
2017,08,04,14,16,30.40
2017,08,04,14,17,30.30
2017,08,04,14,18,30.30
2017,08,04,14,19,30.30
2017,08,04,14,20,30.30
2017,08,04,14,21,30.30
2017,08,04,14,22,30.30
2017,08,04,14,23,30.20
2017,08,04,14,24,30.10
2017,08,04,14,25,30.10
2017,08,04,14,26,30.10
2017,08,04,14,27,30.20
2017,08,04,14,28,30.20
2017,08,04,14,29,30.30
2017,08,04,14,30,30.30
2017,08,04,14,31,30.40
2017,08,04,14,32,30.40
2017,08,04,14,33,30.40
2017,08,04,14,34,30.40
2017,08,04,14,35,30.40
2017,08,04,14,36,30.30
2017,08,04,14,37,30.30
2017,08,04,14,38,30.20
2017,08,04,14,39,30.20
2017,08,04,14,40,30.10
2017,08,04,14,41,30.10
2017,08,04,14,42,30.10
2017,08,04,14,43,30.10
2017,08,04,14,44,30.10
2017,08,04,14,45,30.10
2017,08,04,14,46,30.10
2017,08,04,14,47,30.20
2017,08,04,14,48,30.20
2017,08,04,14,49,30.30
2017,08,04,14,50,30.40
2017,08,04,14,51,30.40
2017,08,04,14,52,30.40
2017,08,04,14,53,30.50
2017,08,04,14,54,30.50
2017,08,04,14,55,30.40
2017,08,04,14,56,30.40
2017,08,04,14,57,30.30
2017,08,04,14,58,30.20
2017,08,04,14,59,30.20
2017,08,04,15,00,30.20
2017,08,04,15,01,30.10
2017,08,04,15,02,30.10
2017,08,04,15,03,30.10
2017,08,04,15,04,30.10
2017,08,04,15,05,30.10
2017,08,04,15,06,30.10
2017,08,04,15,07,30.10
2017,08,04,15,08,30.10
2017,08,04,15,09,30.10
2017,08,04,15,10,30.10
2017,08,04,15,11,30.10
2017,08,04,15,12,30.10
2017,08,04,15,13,30.10
2017,08,04,15,14,30.10
2017,08,04,15,15,30.10
2017,08,04,15,16,30.10
2017,08,04,15,17,30.00
2017,08,04,15,18,30.00
2017,08,04,15,19,30.00
2017,08,04,15,20,30.00
2017,08,04,15,21,29.90
2017,08,04,15,22,29.90
2017,08,04,15,23,29.80
2017,08,04,15,24,29.80
2017,08,04,15,25,29.80
2017,08,04,15,26,29.70
2017,08,04,15,27,29.70
2017,08,04,15,28,29.70
2017,08,04,15,29,29.70
2017,08,04,15,30,29.70
2017,08,04,15,31,29.70
2017,08,04,15,32,29.70
2017,08,04,15,33,29.70
2017,08,04,15,34,29.70
2017,08,04,15,35,29.60
2017,08,04,15,36,29.60
2017,08,04,15,37,29.60
2017,08,04,15,38,29.50
2017,08,04,15,39,29.50
2017,08,04,15,40,29.40
2017,08,04,15,41,29.40
2017,08,04,15,42,29.40
2017,08,04,15,43,29.40
2017,08,04,15,44,29.40
2017,08,04,15,45,29.30
2017,08,04,15,46,29.30
2017,08,04,15,47,29.30
2017,08,04,15,48,29.30
2017,08,04,15,49,29.30
2017,08,04,15,50,29.30
2017,08,04,15,51,29.20
2017,08,04,15,52,29.20
2017,08,04,15,53,29.10
2017,08,04,15,54,29.10
2017,08,04,15,55,29.00
2017,08,04,15,56,29.00
2017,08,04,15,57,28.90
2017,08,04,15,58,28.80
2017,08,04,15,59,28.80
2017,08,04,16,00,28.80
2017,08,04,16,01,28.70
2017,08,04,16,02,28.70
2017,08,04,16,03,28.70
2017,08,04,16,04,28.70
2017,08,04,16,05,28.70
2017,08,04,16,06,28.70
2017,08,04,16,07,28.70
2017,08,04,16,08,28.70
2017,08,04,16,09,28.70
2017,08,04,16,10,28.80
2017,08,04,16,11,28.80
2017,08,04,16,12,28.80
2017,08,04,16,13,28.80
2017,08,04,16,14,28.80
2017,08,04,16,15,28.80
2017,08,04,16,16,28.80
2017,08,04,16,17,28.80
2017,08,04,16,18,28.70
2017,08,04,16,19,28.70
2017,08,04,16,20,28.70
2017,08,04,16,21,28.70
2017,08,04,16,22,28.60
2017,08,04,16,23,28.50
2017,08,04,16,24,28.50
2017,08,04,16,25,28.40
2017,08,04,16,26,28.40
2017,08,04,16,27,28.30
2017,08,04,16,28,28.20
2017,08,04,16,29,28.20
2017,08,04,16,30,28.20
2017,08,04,16,31,28.20
2017,08,04,16,32,28.20
2017,08,04,16,33,28.20
2017,08,04,16,34,28.20
2017,08,04,16,35,28.20
2017,08,04,16,36,28.20
2017,08,04,16,37,28.20
2017,08,04,16,38,28.20
2017,08,04,16,39,28.20
2017,08,04,16,40,28.20
2017,08,04,16,41,28.20
2017,08,04,16,42,28.20
2017,08,04,16,43,28.20
2017,08,04,16,44,28.20
2017,08,04,16,45,28.20
2017,08,04,16,46,28.10
2017,08,04,16,47,28.10
2017,08,04,16,48,28.10
2017,08,04,16,49,28.00
2017,08,04,16,50,28.00
2017,08,04,16,51,27.90
2017,08,04,16,52,27.80
2017,08,04,16,53,27.80
2017,08,04,16,54,27.80
2017,08,04,16,55,27.70
2017,08,04,16,56,27.70
2017,08,04,16,57,27.60
2017,08,04,16,58,27.60
2017,08,04,16,59,27.50
2017,08,04,17,00,27.50
2017,08,04,17,01,27.50
2017,08,04,17,02,27.40
2017,08,04,17,03,27.40
2017,08,04,17,04,27.30
2017,08,04,17,05,27.30
2017,08,04,17,06,27.20
2017,08,04,17,07,27.20
2017,08,04,17,08,27.10
2017,08,04,17,09,27.10
2017,08,04,17,10,27.10
2017,08,04,17,11,27.00
2017,08,04,17,12,26.90
2017,08,04,17,13,26.90
2017,08,04,17,14,26.80
2017,08,04,17,15,26.80
2017,08,04,17,16,26.80
2017,08,04,17,17,26.80
2017,08,04,17,18,26.80
2017,08,04,17,19,26.70